When you browse on this site, cookies collect data to enhance your experience and personalize the content and advertising you see.
Visit our Privacy Policy to learn more. By continuing to use the site, you agree to this use of cookies and data.
  • en Suisse
  • Liste des pays
  • À 7 jours
  • Température de l'eau
  • Carte météo
  • Widgets météo
  • user-avatar
    Se connecter

    Météo par heure à Kniatowy

    Ce jour, 15 Septembre, Dimanche

    Heure Température Précipitation Vent Pression Humidité
    00:00 +12°C° 0 mm 1 m/s 755 mmHg 65%
    01:00 +12°C° 0 mm 2 m/s 754 mmHg 66%
    02:00 +10°C° 0 mm 2 m/s 754 mmHg 69%
    03:00 +10°C° 0 mm 2 m/s 754 mmHg 71%
    04:00 +10°C° 0 mm 3 m/s 753 mmHg 74%
    05:00 +10°C° 0 mm 3 m/s 753 mmHg 71%
    06:00 +11°C° 0 mm 4 m/s 752 mmHg 69%
    07:00 +12°C° 0 mm 4 m/s 752 mmHg 67%
    08:00 +14°C° 0 mm 5 m/s 751 mmHg 61%
    09:00 +16°C° 0 mm 5 m/s 751 mmHg 55%
    10:00 +19°C° 0 mm 5 m/s 750 mmHg 49%
    11:00 +20°C° 0 mm 6 m/s 750 mmHg 49%
    12:00 +21°C° 0 mm 6 m/s 749 mmHg 48%
    13:00 +23°C° 0 mm 6 m/s 749 mmHg 47%
    14:00 +22°C° 0 mm 6 m/s 748 mmHg 50%
    15:00 +22°C° 0 mm 5 m/s 748 mmHg 52%
    16:00 +22°C° 0 mm 5 m/s 747 mmHg 54%
    17:00 +21°C° 0 mm 5 m/s 747 mmHg 58%
    18:00 +20°C° 0 mm 4 m/s 747 mmHg 63%
    19:00 +18°C° 0 mm 4 m/s 747 mmHg 68%
    20:00 +18°C° 0 mm 4 m/s 747 mmHg 67%
    21:00 +17°C° 0 mm 4 m/s 747 mmHg 67%
    22:00 +15°C° 0 mm 4 m/s 746 mmHg 67%
    23:00 +14°C° 0 mm 3 m/s 746 mmHg 66%

    Demain, 16 Septembre, Lundi

    Heure Température Précipitation Vent Pression Humidité
    00:00 +14°C° 0 mm 3 m/s 746 mmHg 65%
    01:00 +13°C° 0 mm 3 m/s 746 mmHg 64%
    02:00 +13°C° 0 mm 3 m/s 746 mmHg 64%
    03:00 +13°C° 0 mm 4 m/s 746 mmHg 64%
    04:00 +13°C° 0 mm 4 m/s 746 mmHg 64%
    05:00 +13°C° 0 mm 4 m/s 746 mmHg 66%
    06:00 +13°C° 0 mm 4 m/s 746 mmHg 69%
    07:00 +14°C° 0 mm 4 m/s 746 mmHg 71%
    08:00 +13°C° 0.2 mm 4 m/s 746 mmHg 75%
    09:00 +13°C° 0.2 mm 3 m/s 746 mmHg 79%
    10:00 +13°C° 0.2 mm 3 m/s 746 mmHg 84%
    11:00 +13°C° 0.1 mm 3 m/s 745 mmHg 84%
    12:00 +13°C° 0.1 mm 3 m/s 745 mmHg 85%
    13:00 +13°C° 0.1 mm 4 m/s 745 mmHg 85%
    14:00 +13°C° 0.2 mm 3 m/s 744 mmHg 87%
    15:00 +12°C° 0.2 mm 3 m/s 744 mmHg 88%
    16:00 +12°C° 0.2 mm 3 m/s 744 mmHg 89%
    17:00 +12°C° 0.8 mm 3 m/s 744 mmHg 90%
    18:00 +12°C° 0.8 mm 3 m/s 744 mmHg 92%
    19:00 +12°C° 0.8 mm 3 m/s 744 mmHg 93%
    20:00 +11°C° 0.6 mm 3 m/s 744 mmHg 93%
    21:00 +11°C° 0.6 mm 4 m/s 744 mmHg 92%
    22:00 +11°C° 0.6 mm 4 m/s 744 mmHg 91%
    23:00 +11°C° 0.1 mm 4 m/s 744 mmHg 91%

    Après-demain, 17 Septembre, Mardi

    Heure Température Précipitation Vent Pression Humidité
    00:00 +11°C° 0.1 mm 4 m/s 744 mmHg 90%
    01:00 +11°C° 0.1 mm 4 m/s 744 mmHg 89%
    02:00 +11°C° 0 mm 4 m/s 744 mmHg 87%
    03:00 +10°C° 0 mm 4 m/s 744 mmHg 85%
    04:00 +10°C° 0 mm 4 m/s 744 mmHg 83%
    05:00 +9°C° 0 mm 5 m/s 744 mmHg 80%
    06:00 +9°C° 0 mm 5 m/s 744 mmHg 78%
    07:00 +9°C° 0 mm 5 m/s 744 mmHg 76%
    08:00 +10°C° 0 mm 6 m/s 744 mmHg 70%
    09:00 +11°C° 0 mm 7 m/s 744 mmHg 65%
    10:00 +12°C° 0 mm 7 m/s 744 mmHg 60%
    11:00 +12°C° 0.1 mm 8 m/s 743 mmHg 58%
    12:00 +13°C° 0.1 mm 8 m/s 743 mmHg 57%
    13:00 +13°C° 0.1 mm 9 m/s 742 mmHg 55%
    14:00 +12°C° 0.1 mm 8 m/s 742 mmHg 58%
    15:00 +12°C° 0.1 mm 8 m/s 742 mmHg 62%
    16:00 +11°C° 0.1 mm 8 m/s 741 mmHg 65%
    17:00 +11°C° 0.3 mm 8 m/s 742 mmHg 68%
    18:00 +10°C° 0.3 mm 7 m/s 742 mmHg 71%
    19:00 +9°C° 0.3 mm 7 m/s 742 mmHg 75%
    20:00 +8°C° 0 mm 7 m/s 742 mmHg 76%
    21:00 +8°C° 0 mm 7 m/s 743 mmHg 78%
    22:00 +6°C° 0 mm 7 m/s 743 mmHg 79%
    23:00 +6°C° 0 mm 7 m/s 743 mmHg 79%

    18 Septembre, Mercredi

    Heure Température Précipitation Vent Pression Humidité
    00:00 +6°C° 0 mm 7 m/s 743 mmHg 79%
    01:00 +5°C° 0 mm 7 m/s 743 mmHg 80%
    02:00 +5°C° 0 mm 7 m/s 744 mmHg 80%
    03:00 +5°C° 0 mm 7 m/s 744 mmHg 81%
    04:00 +5°C° 0 mm 7 m/s 744 mmHg 82%
    05:00 +5°C° 0 mm 7 m/s 745 mmHg 81%
    06:00 +5°C° 0 mm 7 m/s 745 mmHg 79%
    07:00 +5°C° 0 mm 7 m/s 746 mmHg 78%
    08:00 +8°C° 0 mm 7 m/s 746 mmHg 72%
    09:00 +9°C° 0 mm 7 m/s 747 mmHg 67%
    10:00 +11°C° 0 mm 7 m/s 747 mmHg 61%
    11:00 +11°C° 0 mm 7 m/s 747 mmHg 57%
    12:00 +12°C° 0 mm 7 m/s 747 mmHg 54%
    13:00 +14°C° 0 mm 6 m/s 747 mmHg 50%
    14:00 +13°C° 0.2 mm 6 m/s 747 mmHg 52%
    15:00 +13°C° 0.2 mm 6 m/s 747 mmHg 53%
    16:00 +13°C° 0.2 mm 6 m/s 747 mmHg 54%
    17:00 +12°C° 0 mm 5 m/s 747 mmHg 59%
    18:00 +10°C° 0 mm 4 m/s 747 mmHg 64%
    19:00 +9°C° 0 mm 3 m/s 747 mmHg 70%
    20:00 +9°C° 0 mm 3 m/s 747 mmHg 71%
    21:00 +8°C° 0 mm 3 m/s 748 mmHg 73%
    22:00 +8°C° 0 mm 3 m/s 748 mmHg 75%
    23:00 +7°C° 0 mm 3 m/s 748 mmHg 76%

    19 Septembre, Jeudi

    Heure Température Précipitation Vent Pression Humidité
    00:00 +7°C° 0 mm 3 m/s 748 mmHg 78%
    01:00 +5°C° 0 mm 3 m/s 748 mmHg 80%
    02:00 +5°C° 0 mm 3 m/s 748 mmHg 81%
    03:00 +5°C° 0 mm 3 m/s 748 mmHg 82%
    04:00 +5°C° 0 mm 3 m/s 748 mmHg 83%
    05:00 +5°C° 0.1 mm 3 m/s 748 mmHg 82%
    06:00 +6°C° 0.1 mm 4 m/s 748 mmHg 81%
    07:00 +7°C° 0.1 mm 4 m/s 748 mmHg 79%
    08:00 +8°C° 0.3 mm 4 m/s 749 mmHg 75%
    09:00 +10°C° 0.3 mm 4 m/s 749 mmHg 70%
    10:00 +11°C° 0.3 mm 4 m/s 749 mmHg 65%
    11:00 +12°C° 0.3 mm 4 m/s 749 mmHg 62%
    12:00 +12°C° 0.3 mm 4 m/s 749 mmHg 59%
    13:00 +13°C° 0.3 mm 5 m/s 749 mmHg 56%
    14:00 +13°C° 0.1 mm 4 m/s 749 mmHg 57%
    15:00 +13°C° 0.1 mm 4 m/s 749 mmHg 57%
    16:00 +13°C° 0.1 mm 4 m/s 749 mmHg 58%
    17:00 +12°C° 0.4 mm 4 m/s 749 mmHg 63%
    18:00 +11°C° 0.4 mm 4 m/s 750 mmHg 68%
    19:00 +10°C° 0.4 mm 3 m/s 750 mmHg 74%
    20:00 +8°C° 0.2 mm 4 m/s 751 mmHg 75%
    21:00 +7°C° 0.2 mm 4 m/s 751 mmHg 76%
    22:00 +6°C° 0.2 mm 4 m/s 752 mmHg 77%
    23:00 +6°C° 0 mm 4 m/s 752 mmHg 78%

    20 Septembre, Vendredi

    Heure Température Précipitation Vent Pression Humidité
    00:00 +5°C° 0 mm 3 m/s 752 mmHg 79%
    01:00 +4°C° 0 mm 3 m/s 753 mmHg 80%
    02:00 +4°C° 0 mm 3 m/s 753 mmHg 80%
    03:00 +4°C° 0 mm 3 m/s 753 mmHg 81%
    04:00 +3°C° 0 mm 4 m/s 753 mmHg 81%
    05:00 +4°C° 0 mm 4 m/s 754 mmHg 79%
    06:00 +4°C° 0 mm 4 m/s 754 mmHg 76%
    07:00 +5°C° 0 mm 4 m/s 754 mmHg 74%
    08:00 +6°C° 0 mm 5 m/s 754 mmHg 68%
    09:00 +8°C° 0 mm 5 m/s 755 mmHg 61%
    10:00 +10°C° 0 mm 5 m/s 755 mmHg 55%
    11:00 +10°C° 0 mm 5 m/s 755 mmHg 51%
    12:00 +12°C° 0 mm 4 m/s 754 mmHg 47%
    13:00 +13°C° 0 mm 4 m/s 754 mmHg 43%
    14:00 +12°C° 0 mm 4 m/s 754 mmHg 44%
    15:00 +12°C° 0 mm 4 m/s 754 mmHg 45%
    16:00 +12°C° 0 mm 4 m/s 754 mmHg 45%
    17:00 +11°C° 0 mm 3 m/s 754 mmHg 49%
    18:00 +10°C° 0 mm 3 m/s 754 mmHg 54%
    19:00 +8°C° 0 mm 2 m/s 754 mmHg 58%
    20:00 +8°C° 0 mm 2 m/s 754 mmHg 59%
    21:00 +8°C° 0 mm 2 m/s 754 mmHg 61%
    22:00 +7°C° 0 mm 3 m/s 754 mmHg 62%
    23:00 +7°C° 0 mm 3 m/s 754 mmHg 64%
    Voir plus